Home > Weather > Springfield > Past weeks

Flag for U.S.A. Weather for the Past 2 Weeks in Springfield, Missouri, U.S.A.

Now
30 °F

Partly sunny.


Feels Like: 16 °F
Forecast: 22 / 31 °F
Wind: 23 mph from Northwest

Location: Springfield Regional Airport

Current Time: Feb 9, 2016 at 1:04:03 PM

Latest Report: Feb 9, 2016 at 11:52 AM


Visibility: 10 mi

Pressure: 30.15 "Hg

Humidity: 41%

Dew point: 9 °F

Location of SpringfieldLocation

Historic Weather in Springfield — Graph

°F

Springfield Temperature Yesterday

Maximum temperature yesterday: 39 °F (at 12:52 AM)
Minimum temperature yesterday: 28 °F (at 11:52 PM)
Average temperature yesterday: 34 °F

High & Low Weather Summary for the Past Weeks

 TemperatureHumidityPressure
High69 °F (Jan 29, 2:52 PM)90% (Feb 2, 6:52 AM)30.43 "Hg (Feb 2, 6:52 AM)
Low18 °F (Feb 4, 7:52 AM)19% (Feb 1, 2:52 PM)29.44 "Hg (Feb 2, 5:52 AM)
Average41 °F55%30.01 "Hg
* Reported Jan 25 11:52 AM — Feb 9 11:52 AM, Springfield, Weather by CustomWeather, © 2016

Note: Actual official high and low records may vary slightly from our data, if they occured in-between our weather recording intervals... More about our weather records

Advertising

Springfield Weather History for the Previous 24 Hours

 ConditionsComfort  
Time TempWeatherWind HumidityBarometerVisibility
11:52 AM
Tue, Feb 9
30 °FPartly sunny.23 mph41%30.15 "Hg10 mi
10:52 AM29 °FScattered clouds.25 mph43%30.14 "Hg10 mi
9:52 AM28 °FPassing clouds.28 mph45%30.11 "Hg10 mi
8:52 AM27 °FSunny.26 mph46%30.08 "Hg10 mi
7:52 AM26 °FSunny.18 mph55%30.05 "Hg10 mi
6:52 AM25 °FClear.12 mph69%30.04 "Hg10 mi
5:52 AM25 °FClear.9 mph66%30.02 "Hg10 mi
4:52 AM27 °FClear.10 mph58%30.01 "Hg10 mi
3:52 AM27 °FClear.15 mph58%30.01 "Hg10 mi
2:52 AM27 °FPassing clouds.16 mph58%30.01 "Hg10 mi
1:52 AM28 °FClear.14 mph56%30.03 "Hg10 mi
12:52 AM28 °FClear.17 mph53%30.04 "Hg10 mi
11:52 PM
Mon, Feb 8
28 °FPassing clouds.16 mph56%30.05 "Hg10 mi
10:52 PM29 °FPassing clouds.14 mph54%30.05 "Hg10 mi
9:52 PM29 °FClear.15 mph51%30.06 "Hg10 mi
8:52 PM30 °FPassing clouds.16 mph49%30.06 "Hg10 mi
7:52 PM31 °FPassing clouds.15 mph52%30.06 "Hg10 mi
6:52 PM32 °FOvercast.13 mph47%30.07 "Hg10 mi
5:52 PM33 °FOvercast.22 mph43%30.07 "Hg10 mi
4:52 PM33 °FOvercast.18 mph45%30.06 "Hg10 mi
3:52 PM33 °FOvercast.24 mph43%30.04 "Hg10 mi
2:52 PM33 °FOvercast.23 mph48%30.03 "Hg10 mi
1:52 PM34 °FOvercast.25 mph46%30.02 "Hg10 mi
Weather by CustomWeather, © 2016

See weather overviewHow to use our weather pages